Regional Weather Roundup
Issued by NWS

Home | Current Version | Previous Version | Graphics & Text | Print | Product List | Glossary On
Versions: 1 2 3 4 5 6 7 8 9 10 11 12 13 14 15 16 17 18 19 20 21 22 23 24 25 26 27 28 29 30 31 32 33 34 35 36 37 38 39 40 41 42 43 44 45 46 47 48 49 50
000
ASUS43 KLMK 251302
RWRKY
KENTUCKY REGIONAL WEATHER ROUNDUP
NATIONAL WEATHER SERVICE LOUISVILLE KY
800 AM EST SUN JAN 25 2015

NOTE "FAIR" INDICATES FEW OR NO CLOUDS BELOW 12,000 FEET
WITH NO SIGNIFICANT WEATHER AND/OR OBSTRUCTIONS TO VISIBILITY.

KYZ001>023-026-027-061>063-070>075-251400-
WESTERN AND SOUTH CENTRAL KENTUCKY

CITY           SKY/WX    TMP DP  RH WIND       PRES   REMARKS
PADUCAH        CLOUDY    43  33  68 SW10      29.69F
HENDERSON      CLOUDY    41  30  65 SW9       29.68S
OWENSBORO      MOCLDY    39  33  79 S9        29.70F WCI  33
HOPKINSVILLE   MOCLDY    40  32  74 S10       29.74S WCI  33
BOWLING GREEN  CLOUDY    38  30  73 S12       29.76F WCI  30
GLASGOW        NOT AVBL
$$

KYZ024-025-028>034-038-045-046-053-251400-
NORTH CENTRAL KENTUCKY

CITY           SKY/WX    TMP DP  RH WIND       PRES   REMARKS
LOUISVILLE/SDF CLOUDY    39  31  72 SE7       29.73R WCI  34
LOUISVILLE/LOU CLOUDY    40  31  70 S6        29.73R
FORT KNOX      CLOUDY    37  31  78 S12       29.71S WCI  30
$$

KYZ035>037-039>044-047>052-055>060-089>105-251400-
NORTHEAST KENTUCKY

CITY           SKY/WX    TMP DP  RH WIND       PRES   REMARKS
LEXINGTON      MOCLDY    35  30  82 S12       29.75F WCI  27
COVINGTON      CLOUDY    36  30  79 S6        29.70F WCI  31
FRANKFORT      CLOUDY    37  30  75 S9        29.74R WCI  30
$$

KYZ054-064>069-076>088-106>120-251400-
SOUTHEAST KENTUCKY

CITY           SKY/WX    TMP DP  RH WIND       PRES   REMARKS
JACKSON        MOCLDY    34  28  79 SW5       29.79F WCI  30
LONDON         MOCLDY    36  27  69 S5        29.81S WCI  32
SOMERSET       NOT AVBL
MIDDLESBORO    NOT AVBL
MONTICELLO     MOSUNNY   37  31  79 S10       29.82F WCI  30
$$



USA.gov is the U.S. government's official web portal to all federal, state and local government web resources and services.